Location: *
(46.1333°S, 161.2167°W)
Time: 09:44:34
(UTC+00:00)

Cosmos 2298 Rocket - Pass Details

Date: 29 October 2020
Orbit: 776 x 783 km, 74.0° (Epoch: 04 December)

Event Time Altitude Azimuth Distance (km) Brightness Sun altitude
Exits shadow 13:21:11 - 253° (WSW) 2,586 6.5 -18.7°
Reaches altitude 10° 13:22:48 10° 237° (WSW) 2,369 6.4 -18.5°
Maximum altitude 13:24:11 11° 222° (SW) 2,308 6.5 -18.3°
Drops below altitude 10° 13:25:34 10° 207° (SSW) 2,375 6.8 -18.1°
Sets 13:30:14 0° 171° (S) 3,314 8.2 -17.6°
